Battle Mountain, Nevada, United States (89820)
Lat: 40.64N, Lon: 116.93W
Wx Zone: NVZ036
Local Info
Past Weather Observations for Friday, December 12, 2014

NOTE: This archive is for the closest National Weather Service station to Battle Mountain. Information may differ from the station used for current weather conditions.

Click here for Long-term Archive

Time Weather Temperature Dewpoint Humidity Pressure Winds Precip Visibility
23:56
Mostly Cloudy
34°F / 1°C 28°F / -2°C 81% 29.98 in
(1015 mb)
Calm - 10SM
22:56
Clear
34°F / 1°C 28°F / -2°C 81% 29.98 in
(1015 mb)
WNW 6.9 mph
(WNW 11 kph)
- 10SM
21:56
Partly Cloudy
36°F / 2°C 30°F / -1°C 81% 29.95 in
(1014 mb)
W 4.6 mph
(W 7 kph)
- 10SM
20:56
Mostly Cloudy
37°F / 3°C 30°F / -1°C 75% 29.92 in
(1013 mb)
Calm - 10SM
19:56
Overcast
37°F / 3°C 32°F / 0°C 81% 29.92 in
(1013 mb)
WNW 4.6 mph
(WNW 7 kph)
- 10SM
18:56
Overcast
39°F / 4°C 30°F / -1°C 70% 29.89 in
(1012 mb)
NNW 5.8 mph
(NNW 9 kph)
- 10SM
17:56
Overcast
37°F / 3°C 34°F / 1°C 87% 29.83 in
(1010 mb)
WNW 8.1 mph
(WNW 13 kph)
0.01 in
(0.25 mm)
10SM
16:56
Overcast
39°F / 4°C 34°F / 1°C 81% 29.83 in
(1010 mb)
SSW 8.1 mph
(SSW 13 kph)
- 10SM
15:56
Overcast
41°F / 5°C 34°F / 1°C 76% 29.77 in
(1008 mb)
SSW 12.7 mph
(SSW 20 kph)
- 10SM
15:32
Overcast
41°F / 5°C 34°F / 1°C 76% 29.77 in
(1008 mb)
SW 13.8 mph
(SW 22 kph)
- 10SM
14:56
Overcast
39°F / 4°C 34°F / 1°C 81% 29.77 in
(1008 mb)
SW 11.5 mph
(SW 19 kph)
0.00 in
(0.00 mm)
10SM
14:10
Overcast
Light Rain
39°F / 4°C 36°F / 2°C 87% 29.74 in
(1007 mb)
SW 11.5 mph
(SW 19 kph)
0.00 in
(0.00 mm)
10SM
12:56
Overcast
Light Rain
39°F / 4°C 36°F / 2°C 87% 29.74 in
(1007 mb)
SSE 8.1 mph
(SSE 13 kph)
0.01 in
(0.25 mm)
10SM
11:56
Overcast
Light Rain
39°F / 4°C 37°F / 3°C 93% 29.71 in
(1006 mb)
SE 13.8 mph
(SE 22 kph)
0.02 in
(0.51 mm)
5SM
10:56
Overcast
Light Rain
41°F / 5°C 36°F / 2°C 81% 29.68 in
(1005 mb)
SSW 17.3 mph
(SSW 28 kph)
0.00 in
(0.00 mm)
10SM
10:03
Overcast
Light Rain
43°F / 6°C 36°F / 2°C 76% 29.71 in
(1006 mb)
SSW 21.9 mph
(SSW 35 kph)
0.00 in
(0.00 mm)
10SM
09:56
Overcast
Light Rain
45°F / 7°C 36°F / 2°C 71% 29.68 in
(1005 mb)
SSW 21.9 mph
(SSW 35 kph)
0.00 in
(0.00 mm)
10SM
08:56
Overcast
52°F / 11°C 34°F / 1°C 50% 29.65 in
(1004 mb)
S 23 mph
(S 37 kph)
- 10SM
07:56
Partly Cloudy
52°F / 11°C 28°F / -2°C 41% 29.59 in
(1002 mb)
S 15 mph
(S 24 kph)
- 7SM
06:56
Mostly Cloudy
50°F / 10°C 28°F / -2°C 43% 29.59 in
(1002 mb)
S 8.1 mph
(S 13 kph)
- 7SM
05:56
Mostly Cloudy
52°F / 11°C 27°F / -3°C 38% 29.59 in
(1002 mb)
S 15 mph
(S 24 kph)
- 9SM
04:56
Overcast
52°F / 11°C 27°F / -3°C 38% 29.56 in
(1001 mb)
S 13.8 mph
(S 22 kph)
- 10SM
03:56
Partly Cloudy
45°F / 7°C 28°F / -2°C 53% 29.59 in
(1002 mb)
SSW 5.8 mph
(SSW 9 kph)
- 10SM
02:56
Clear
48°F / 9°C 27°F / -3°C 43% 29.59 in
(1002 mb)
S 12.7 mph
(S 20 kph)
- 10SM
01:56
Clear
50°F / 10°C 27°F / -3°C 40% 29.59 in
(1002 mb)
S 13.8 mph
(S 22 kph)
- 10SM
00:56
Clear
50°F / 10°C 25°F / -4°C 37% 29.59 in
(1002 mb)
S 15 mph
(S 24 kph)
- 10SM
Time Weather Temperature Dewpoint Humidity Pressure Winds Precip Visibility


Weather for websites

WeatherForYou.com, LLC is not responsible for any damages or problems caused by this service. Current weather conditions are obtained from the closest station including government and personal stations which may have varying degrees of accuracy. Weather forecasts are derived from the NOAA NDFD. Like all things, this site belongs to Jesus Christ... He just trusts me to maintain it. If you have any questions or comments email webmaster@weatherforyou.com

Copyright © 2014, WeatherForYou.com LLC. All rights reserved.